GW2812 Weather Reports


Display with metric or nautical units.
time (UTC)temp
F
wind
direction
speed
MPH
gust
MPH
rain 1hr
in
rain 24hr
in
rain mn
in
humidity
%
barometer
mb
20260503034826 53 348 3.0 9.0 0.00 0.03 0.03 52 1011.2
20260503034323 53 5 7.0 9.0 0.00 0.03 0.03 52 1010.9
20260503033820 53 359 4.0 11.0 0.00 0.03 0.03 51 1010.9
20260503033318 53 345 4.0 8.0 0.00 0.03 0.03 52 1011.1
20260503032815 53 356 3.0 11.0 0.00 0.03 0.03 52 1011.1
20260503032314 53 355 5.0 8.0 0.00 0.03 0.03 53 1010.8
20260503031811 53 351 8.0 10.0 0.00 0.03 0.03 53 1010.8
20260503031309 53 352 5.0 7.0 0.00 0.03 0.03 53 1010.8
20260503030805 53 353 5.0 11.0 0.00 0.03 0.03 54 1011.0
20260503030301 54 0 8.0 12.0 0.00 0.03 0.03 54 1010.9
20260503025758 53 13 2.0 9.0 0.00 0.03 0.03 53 1011.0
20260503025256 54 347 7.0 8.0 0.00 0.03 0.03 52 1010.8
20260503024752 54 345 9.0 11.0 0.00 0.03 0.03 51 1011.1
20260503024249 54 357 7.0 10.0 0.00 0.03 0.03 51 1010.9
20260503023746 53 352 4.0 9.0 0.00 0.03 0.03 53 1010.9
20260503023243 53 350 4.0 9.0 0.00 0.03 0.03 57 1011.1
20260503022739 52 328 1.0 2.0 0.00 0.03 0.03 67 1010.9
20260503022234 52 341 3.0 5.0 0.00 0.03 0.03 67 1010.9
20260503021731 52 331 2.0 4.0 0.00 0.03 0.03 70 1011.1
20260503021227 52 328 3.0 3.0 0.00 0.03 0.03 75 1011.4
20260503020725 51 324 2.0 4.0 0.00 0.03 0.03 77 1011.2
20260503020222 51 329 2.0 3.0 0.00 0.03 0.03 81 1011.2
20260503015719 50 264 2.0 3.0 0.00 0.03 0.03 84 1011.5
20260503015216 50 222 1.0 1.0 0.00 0.03 0.03 86 1011.4
20260503014711 50 255 0.0 1.0 0.00 0.03 0.03 85 1011.5
20260503014210 51 249 1.0 2.0 0.00 0.03 0.03 85 1011.3
20260503013706 51 151 0.0 2.0 0.00 0.03 0.03 84 1011.2
20260503013204 51 206 2.0 2.0 0.00 0.03 0.03 83 1011.4
20260503012702 51 353 2.0 3.0 0.00 0.03 0.03 83 1011.2
20260503012158 51 300 0.0 3.0 0.00 0.03 0.03 82 1011.2
20260503011654 51 203 3.0 4.0 0.00 0.03 0.03 81 1011.3
20260503011152 51 358 3.0 4.0 0.00 0.03 0.03 82 1011.2
20260503010648 51 300 1.0 2.0 0.00 0.03 0.03 82 1011.3
20260503010145 52 160 1.0 2.0 0.00 0.03 0.03 81 1010.9
20260503005642 52 163 1.0 5.0 0.00 0.03 0.03 80 1010.8
20260503005139 52 165 1.0 2.0 0.00 0.03 0.03 80 1011.1
20260503004636 52 198 2.0 4.0 0.00 0.03 0.03 80 1011.0
20260503004134 52 170 1.0 2.0 0.00 0.03 0.03 81 1010.7
20260503003631 52 168 0.0 2.0 0.00 0.03 0.03 80 1010.8
20260503003128 52 170 2.0 2.0 0.00 0.03 0.03 80 1010.7
20260503002625 52 175 3.0 4.0 0.00 0.03 0.03 80 1010.8
20260503002122 52 201 3.0 3.0 0.00 0.03 0.03 80 1010.5
20260503001618 52 188 2.0 4.0 0.00 0.03 0.03 80 1010.7
20260503001115 53 135 3.0 4.0 0.00 0.03 0.03 80 1010.7
20260503000612 53 176 2.0 5.0 0.00 0.03 0.03 80 1010.6
20260503000109 53 150 2.0 4.0 0.00 0.03 0.03 80 1010.7
20260502235606 53 155 3.0 4.0 0.00 0.03 0.03 79 1010.6
20260502235104 53 142 4.0 6.0 0.00 0.03 0.03 79 1010.7
20260502234559 53 123 3.0 4.0 0.00 0.03 0.03 77 1010.5
20260502234058 54 131 4.0 5.0 0.00 0.03 0.03 76 1010.4
20260502233558 54 161 2.0 3.0 0.00 0.03 0.03 76 1010.4
20260502233055 54 127 3.0 4.0 0.00 0.03 0.03 76 1010.5
20260502232551 54 144 2.0 3.0 0.00 0.03 0.03 75 1010.2
20260502232049 54 148 3.0 5.0 0.00 0.03 0.03 74 1010.4
20260502231545 55 132 5.0 6.0 0.00 0.03 0.03 74 1010.4
20260502231043 55 127 4.0 6.0 0.00 0.03 0.03 74 1010.3
20260502230541 55 133 3.0 3.0 0.00 0.03 0.03 74 1010.3
20260502230039 55 139 3.0 6.0 0.00 0.03 0.03 74 1010.3
20260502225534 55 120 5.0 7.0 0.00 0.03 0.03 74 1010.5
20260502225032 56 161 3.0 8.0 0.00 0.03 0.03 74 1010.3
20260502224528 56 140 2.0 7.0 0.00 0.03 0.03 72 1010.5
20260502224025 56 129 4.0 7.0 0.00 0.03 0.03 70 1010.1
20260502223523 57 93 3.0 5.0 0.00 0.03 0.03 69 1010.2
20260502223021 57 102 3.0 7.0 0.00 0.03 0.03 68 1010.3
20260502222518 57 102 4.0 5.0 0.00 0.03 0.03 68 1010.2
20260502222014 57 122 7.0 7.0 0.00 0.03 0.03 68 1010.3
20260502221510 58 95 5.0 5.0 0.00 0.03 0.03 67 1010.2
20260502221008 58 81 2.0 5.0 0.00 0.03 0.03 65 1010.2
20260502220503 58 82 3.0 5.0 0.00 0.03 0.03 65 1010.4
20260502220000 58 95 4.0 5.0 0.00 0.03 0.03 65 1010.3
20260502215457 58 71 2.0 4.0 0.00 0.03 0.03 61 1010.3
20260502214954 58 110 3.0 6.0 0.00 0.03 0.03 62 1010.3
20260502214451 59 81 3.0 7.0 0.00 0.03 0.03 61 1009.9
20260502213948 58 123 3.0 6.0 0.00 0.03 0.03 61 1010.3
20260502213445 59 173 1.0 5.0 0.00 0.03 0.03 60 1010.0
20260502212943 60 33 5.0 5.0 0.00 0.03 0.03 57 1009.9
20260502212442 61 109 4.0 6.0 0.00 0.03 0.03 49 1009.9
20260502211939 61 291 1.0 2.0 0.00 0.03 0.03 44 1009.7
20260502211434 61 336 0.0 2.0 0.00 0.03 0.03 45 1009.6
20260502210932 61 305 5.0 5.0 0.00 0.03 0.03 44 1009.7
20260502210428 61 348 3.0 4.0 0.00 0.03 0.03 45 1009.6
20260502205926 62 353 2.0 3.0 0.00 0.03 0.03 46 1009.9
20260502205422 61 266 3.0 5.0 0.00 0.03 0.03 45 1009.9
20260502204919 61 307 0.0 5.0 0.00 0.03 0.03 45 1009.9
20260502204416 61 329 3.0 5.0 0.00 0.03 0.03 46 1009.7
20260502203914 62 342 2.0 7.0 0.00 0.03 0.03 46 1009.8
20260502203411 62 272 7.0 9.0 0.00 0.03 0.03 45 1009.6
20260502202907 62 4 5.0 14.0 0.00 0.03 0.03 47 1009.8
20260502202404 61 354 9.0 10.0 0.00 0.03 0.03 47 1009.6
20260502201902 64 229 4.0 6.0 0.00 0.03 0.03 44 1009.7
20260502201358 65 319 3.0 7.0 0.00 0.03 0.03 44 1009.9
20260502200855 65 286 6.0 7.0 0.00 0.03 0.03 41 1009.8
20260502200350 62 301 2.0 5.0 0.00 0.03 0.03 47 1009.9
20260502195848 63 282 2.0 7.0 0.00 0.03 0.03 47 1009.9
20260502195345 65 264 0.0 2.0 0.00 0.03 0.03 47 1010.0
20260502194841 62 218 2.0 5.0 0.00 0.03 0.03 51 1010.4
20260502194338 61 147 2.0 3.0 0.00 0.03 0.03 51 1010.2
20260502193834 61 55 4.0 4.0 0.00 0.03 0.03 53 1010.4
20260502193332 60 309 7.0 9.0 0.00 0.03 0.03 55 1010.3
20260502192827 61 6 3.0 4.0 0.00 0.03 0.03 54 1010.6
20260502192324 61 315 1.0 3.0 0.00 0.03 0.03 58 1010.6
20260502191821 60 339 1.0 7.0 0.00 0.03 0.03 54 1010.7
20260502191320 61 306 0.0 2.0 0.00 0.03 0.03 57 1010.8
20260502190816 61 349 2.0 2.0 0.00 0.03 0.03 60 1010.7
20260502190314 61 286 3.0 5.0 0.00 0.03 0.03 59 1011.0
20260502185809 60 122 4.0 5.0 0.00 0.03 0.03 62 1011.0
20260502185305 60 172 5.0 6.0 0.00 0.03 0.03 61 1011.1
20260502184802 59 189 3.0 7.0 0.00 0.03 0.03 64 1010.9
20260502184257 59 217 4.0 5.0 0.00 0.03 0.03 65 1011.1
20260502183754 59 212 3.0 6.0 0.00 0.03 0.03 66 1011.0
20260502183250 60 205 3.0 7.0 0.00 0.03 0.03 65 1011.2
20260502182746 59 207 4.0 7.0 0.00 0.03 0.03 66 1011.4
20260502182241 59 207 4.0 7.0 0.00 0.03 0.03 67 1011.5
20260502181737 59 214 5.0 9.0 0.00 0.03 0.03 67 1011.2
20260502181232 57 181 6.0 7.0 0.00 0.03 0.03 69 1011.3
20260502180728 58 195 5.0 9.0 0.00 0.03 0.03 69 1011.4
20260502180225 58 225 9.0 9.0 0.00 0.03 0.03 67 1011.2
20260502170144 56 182 7.0 7.0 0.00 0.03 0.03 73 1011.8
20260502164130 56 204 6.0 7.0 0.00 0.03 0.03 73 1012.1
20260502163626 56 177 4.0 5.0 0.00 0.03 0.03 74 1012.1
20260502163123 56 189 3.0 6.0 0.00 0.03 0.03 75 1012.1
20260502162620 55 221 5.0 6.0 0.00 0.03 0.03 76 1012.2
20260502162117 55 187 3.0 7.0 0.00 0.03 0.03 77 1011.9
20260502161614 55 213 6.0 8.0 0.00 0.03 0.03 75 1012.1
20260502161111 55 218 6.0 7.0 0.00 0.03 0.03 77 1012.2
20260502160609 55 223 3.0 5.0 0.00 0.03 0.03 77 1012.2
20260502160108 55 207 4.0 6.0 0.00 0.03 0.03 78 1012.1
20260502152022 54 190 5.0 6.0 0.00 0.03 0.03 81 1012.2
20260502151519 54 186 5.0 5.0 0.00 0.03 0.03 80 1012.2
20260502151016 54 186 4.0 5.0 0.00 0.03 0.03 81 1012.3
20260502150514 54 186 3.0 5.0 0.00 0.03 0.03 80 1012.2
20260502130353 53 345 4.0 5.0 0.00 0.03 0.03 81 1012.7
20260502123336 53 278 0.0 3.0 0.00 0.03 0.03 87 1012.7
20260502122833 53 291 2.0 2.0 0.00 0.03 0.03 88 1012.7
20260502122328 53 306 0.0 2.0 0.00 0.03 0.03 89 1012.6
20260502121827 53 242 1.0 2.0 0.00 0.03 0.03 89 1012.5
20260502121324 52 263 1.0 3.0 0.00 0.03 0.03 89 1012.6
20260502120821 52 220 3.0 3.0 0.00 0.03 0.03 89 1012.7
20260502120317 51 253 1.0 5.0 0.00 0.03 0.03 90 1012.6
20260502115815 51 224 4.0 6.0 0.00 0.03 0.03 90 1013.0
20260502115312 51 246 2.0 6.0 0.00 0.03 0.03 90 1012.6
20260502114808 51 251 4.0 5.0 0.00 0.03 0.03 90 1012.7
20260502114305 51 222 3.0 5.0 0.00 0.03 0.03 90 1012.8
20260502113802 51 245 2.0 6.0 0.00 0.03 0.03 90 1012.7
20260502113300 51 235 5.0 7.0 0.00 0.03 0.03 90 1012.5
20260502112758 51 220 4.0 5.0 0.00 0.03 0.03 90 1012.3
20260502112255 51 189 4.0 4.0 0.00 0.03 0.03 90 1012.3
20260502111752 51 217 3.0 5.0 0.02 0.03 0.03 89 1012.5
20260502111250 50 225 3.0 5.0 0.02 0.03 0.03 89 1012.1
20260502110747 51 188 2.0 5.0 0.00 0.03 0.03 89 1012.0
20260502110245 50 200 2.0 4.0 0.07 0.03 0.03 89 1012.1
20260502105743 51 153 2.0 3.0 0.07 0.02 0.02 89 1012.0
20260502105238 51 97 0.0 3.0 0.02 0.01 0.01 88 1012.2
20260502104737 51 197 1.0 2.0 0.07 0.01 0.01 88 1012.4
20260502104234 51 177 1.0 3.0 0.05 0.01 0.01 87 1012.0
20260502103731 51 212 3.0 5.0 0.00 0.00 0.00 86 1012.2
20260502103229 51 210 3.0 5.0 0.00 0.00 0.00 86 1012.5
20260502102725 51 212 3.0 6.0 0.00 0.00 0.00 85 1012.5
20260502102222 51 214 2.0 3.0 0.00 0.00 0.00 85 1012.1
20260502101720 51 251 4.0 5.0 0.00 0.00 0.00 85 1012.2
20260502101218 51 268 4.0 5.0 0.00 0.00 0.00 85 1012.3
20260502100716 51 244 4.0 7.0 0.00 0.00 0.00 85 1012.4
20260502100214 51 214 7.0 11.0 0.00 0.00 0.00 84 1012.4
20260502091148 51 223 3.0 6.0 0.00 0.00 0.00 83 1012.2
20260502090645 51 205 6.0 11.0 0.00 0.00 0.00 83 1012.0
20260502090142 51 212 10.0 14.0 0.00 0.00 0.00 83 1012.1
20260502080105 51 201 6.0 8.0 0.00 0.00 0.00 85 1012.3
20260502071038 51 209 9.0 12.0 0.00 0.00 0.00 87 1012.3
20260502070536 51 226 4.0 12.0 0.00 0.00 0.00 87 1012.5
20260502070033 51 220 5.0 12.0 0.00 0.00 0.00 87 1012.5
20260502065532 51 213 8.0 17.0 0.00 0.00 0.00 87 1012.4
20260502065029 51 241 5.0 14.0 0.00 0.00 0.00 87 1012.5
20260502064527 51 221 8.0 11.0 0.00 0.00 0.00 86 1012.4
20260502064024 51 217 10.0 14.0 0.00 0.00 0.00 86 1012.4
20260502063522 51 208 6.0 15.0 0.00 0.00 0.00 86 1012.6
20260502063020 51 209 17.0 18.0 0.00 0.00 0.00 86 1012.7
20260502062516 51 218 7.0 17.0 0.00 0.00 0.00 86 1012.3
20260502062015 51 207 5.0 12.0 0.00 0.00 0.00 86 1012.9
20260502061512 51 200 6.0 15.0 0.00 0.00 0.00 86 1012.5
20260502061009 51 220 8.0 12.0 0.00 0.00 0.00 86 1012.7
20260502060504 51 216 7.0 12.0 0.00 0.00 0.00 86 1013.0
20260502060001 51 222 5.0 13.0 0.00 0.00 0.00 86 1012.8
20260502055459 51 227 9.0 11.0 0.00 0.00 0.00 86 1012.6
20260502054958 51 226 8.0 15.0 0.00 0.00 0.00 86 1013.0
20260502054455 51 212 7.0 15.0 0.00 0.00 0.00 85 1012.8
20260502053952 51 211 5.0 21.0 0.00 0.00 0.00 85 1012.6
20260502053449 51 191 5.0 14.0 0.00 0.00 0.00 84 1012.3
20260502052947 52 211 6.0 10.0 0.00 0.00 0.00 84 1012.2
20260502052445 52 209 7.0 9.0 0.00 0.00 0.00 84 1012.4
20260502051943 52 231 6.0 7.0 0.00 0.00 0.00 83 1012.5
20260502051441 52 213 6.0 9.0 0.00 0.00 0.00 82 1012.5
20260502050938 52 208 6.0 10.0 0.00 0.00 0.00 82 1012.5
20260502050434 52 212 5.0 9.0 0.00 0.00 0.00 81 1012.5
20260502045932 52 203 5.0 11.0 0.00 0.00 0.00 80 1012.5
20260502045428 52 220 9.0 14.0 0.00 0.00 0.00 80 1012.7
20260502044926 52 197 5.0 9.0 0.00 0.00 0.00 80 1012.6
20260502044421 52 234 5.0 6.0 0.00 0.00 0.00 79 1012.6
20260502043918 52 258 4.0 9.0 0.00 0.00 0.00 79 1012.8
20260502043416 52 252 2.0 6.0 0.00 0.00 0.00 79 1012.6
20260502042915 52 252 3.0 5.0 0.00 0.00 0.00 80 1012.6
20260502042413 52 222 5.0 13.0 0.00 0.00 0.00 81 1012.8
20260502041910 52 226 10.0 12.0 0.00 0.00 0.00 81 1012.7
20260502041408 52 218 9.0 17.0 0.00 0.00 0.00 80 1012.5
20260502040905 52 216 7.0 14.0 0.00 0.00 0.00 79 1012.7
20260502040401 52 225 10.0 15.0 0.00 0.00 0.00 79 1012.9
20260502035857 52 207 7.0 17.0 0.00 0.00 0.00 78 1012.5
20260502035354 52 207 7.0 14.0 0.00 0.00 0.00 78 1012.8